Year,Month,Day,Hour,Minute,Value (Times are PST for temperature in C)
2019,04,02,00,00,5.80
2019,04,02,00,01,5.80
2019,04,02,00,02,5.70
2019,04,02,00,03,5.70
2019,04,02,00,04,5.70
2019,04,02,00,05,5.70
2019,04,02,00,06,5.70
2019,04,02,00,07,5.60
2019,04,02,00,08,5.60
2019,04,02,00,09,5.60
2019,04,02,00,10,5.60
2019,04,02,00,11,5.60
2019,04,02,00,12,5.50
2019,04,02,00,13,5.50
2019,04,02,00,14,5.50
2019,04,02,00,15,5.40
2019,04,02,00,16,5.40
2019,04,02,00,17,5.40
2019,04,02,00,18,5.40
2019,04,02,00,19,5.40
2019,04,02,00,20,5.30
2019,04,02,00,21,5.30
2019,04,02,00,22,5.30
2019,04,02,00,23,5.30
2019,04,02,00,24,5.30
2019,04,02,00,25,5.30
2019,04,02,00,26,5.20
2019,04,02,00,27,5.20
2019,04,02,00,28,5.20
2019,04,02,00,29,5.20
2019,04,02,00,30,5.20
2019,04,02,00,31,5.20
2019,04,02,00,32,5.20
2019,04,02,00,33,5.10
2019,04,02,00,34,5.10
2019,04,02,00,35,5.10
2019,04,02,00,36,5.10
2019,04,02,00,37,5.10
2019,04,02,00,38,5.00
2019,04,02,00,39,5.00
2019,04,02,00,40,5.00
2019,04,02,00,41,4.90
2019,04,02,00,42,4.90
2019,04,02,00,43,4.90
2019,04,02,00,44,4.90
2019,04,02,00,45,4.90
2019,04,02,00,46,4.80
2019,04,02,00,47,4.80
2019,04,02,00,48,4.80
2019,04,02,00,49,4.80
2019,04,02,00,50,4.80
2019,04,02,00,51,4.80
2019,04,02,00,52,4.80
2019,04,02,00,53,4.70
2019,04,02,00,54,4.70
2019,04,02,00,55,4.70
2019,04,02,00,56,4.70
2019,04,02,00,57,4.70
2019,04,02,00,58,4.70
2019,04,02,00,59,4.70
2019,04,02,01,00,4.70
2019,04,02,01,01,4.60
2019,04,02,01,02,4.60
2019,04,02,01,03,4.60
2019,04,02,01,04,4.60
2019,04,02,01,05,4.60
2019,04,02,01,06,4.60
2019,04,02,01,07,4.60
2019,04,02,01,08,4.50
2019,04,02,01,09,4.50
2019,04,02,01,10,4.50
2019,04,02,01,11,4.40
2019,04,02,01,12,4.40
2019,04,02,01,13,4.40
2019,04,02,01,14,4.40
2019,04,02,01,15,4.40
2019,04,02,01,16,4.30
2019,04,02,01,17,4.30
2019,04,02,01,18,4.30
2019,04,02,01,19,4.30
2019,04,02,01,20,4.30
2019,04,02,01,21,4.30
2019,04,02,01,22,4.30
2019,04,02,01,23,4.20
2019,04,02,01,24,4.20
2019,04,02,01,25,4.20
2019,04,02,01,26,4.20
2019,04,02,01,27,4.20
2019,04,02,01,28,4.20
2019,04,02,01,29,4.20
2019,04,02,01,30,4.20
2019,04,02,01,31,4.10
2019,04,02,01,32,4.10
2019,04,02,01,33,4.10
2019,04,02,01,34,4.10
2019,04,02,01,35,4.10
2019,04,02,01,36,4.10
2019,04,02,01,37,4.10
2019,04,02,01,38,4.10
2019,04,02,01,39,4.10
2019,04,02,01,40,4.00
2019,04,02,01,41,4.00
2019,04,02,01,42,4.00
2019,04,02,01,43,3.90
2019,04,02,01,44,3.90
2019,04,02,01,45,3.90
2019,04,02,01,46,3.90
2019,04,02,01,47,3.90
2019,04,02,01,48,3.90
2019,04,02,01,49,3.80
2019,04,02,01,50,3.80
2019,04,02,01,51,3.80
2019,04,02,01,52,3.80
2019,04,02,01,53,3.80
2019,04,02,01,54,3.80
2019,04,02,01,55,3.80
2019,04,02,01,56,3.80
2019,04,02,01,57,3.80
2019,04,02,01,58,3.70
2019,04,02,01,59,3.70
2019,04,02,02,00,3.70
2019,04,02,02,01,3.70
2019,04,02,02,02,3.70
2019,04,02,02,03,3.70
2019,04,02,02,04,3.60
2019,04,02,02,05,3.60
2019,04,02,02,06,3.60
2019,04,02,02,07,3.60
2019,04,02,02,08,3.50
2019,04,02,02,09,3.50
2019,04,02,02,10,3.50
2019,04,02,02,11,3.40
2019,04,02,02,12,3.40
2019,04,02,02,13,3.40
2019,04,02,02,14,3.40
2019,04,02,02,15,3.40
2019,04,02,02,16,3.40
2019,04,02,02,17,3.40
2019,04,02,02,18,3.30
2019,04,02,02,19,3.30
2019,04,02,02,20,3.30
2019,04,02,02,21,3.30
2019,04,02,02,22,3.30
2019,04,02,02,23,3.30
2019,04,02,02,24,3.30
2019,04,02,02,25,3.30
2019,04,02,02,26,3.20
2019,04,02,02,27,3.20
2019,04,02,02,28,3.20
2019,04,02,02,29,3.20
2019,04,02,02,30,3.20
2019,04,02,02,31,3.20
2019,04,02,02,32,3.20
2019,04,02,02,33,3.20
2019,04,02,02,34,3.20
2019,04,02,02,35,3.10
2019,04,02,02,36,3.10
2019,04,02,02,37,3.10
2019,04,02,02,38,3.10
2019,04,02,02,39,3.10
2019,04,02,02,40,3.10
2019,04,02,02,41,3.10
2019,04,02,02,42,3.00
2019,04,02,02,43,3.00
2019,04,02,02,44,3.00
2019,04,02,02,45,2.90
2019,04,02,02,46,2.90
2019,04,02,02,47,2.90
2019,04,02,02,48,2.90
2019,04,02,02,49,2.90
2019,04,02,02,50,2.90
2019,04,02,02,51,2.90
2019,04,02,02,52,2.80
2019,04,02,02,53,2.80
2019,04,02,02,54,2.80
2019,04,02,02,55,2.80
2019,04,02,02,56,2.80
2019,04,02,02,57,2.80
2019,04,02,02,58,2.80
2019,04,02,02,59,2.80
2019,04,02,03,00,2.80
2019,04,02,03,01,2.70
2019,04,02,03,02,2.70
2019,04,02,03,03,2.70
2019,04,02,03,04,2.70
2019,04,02,03,05,2.70
2019,04,02,03,06,2.70
2019,04,02,03,07,2.70
2019,04,02,03,08,2.70
2019,04,02,03,09,2.70
2019,04,02,03,10,2.70
2019,04,02,03,11,2.70
2019,04,02,03,12,2.60
2019,04,02,03,13,2.60
2019,04,02,03,14,2.60
2019,04,02,03,15,2.60
2019,04,02,03,16,2.60
2019,04,02,03,17,2.60
2019,04,02,03,18,2.60
2019,04,02,03,19,2.60
2019,04,02,03,20,2.60
2019,04,02,03,21,2.60
2019,04,02,03,22,2.60
2019,04,02,03,23,2.60
2019,04,02,03,24,2.60
2019,04,02,03,25,2.60
2019,04,02,03,26,2.60
2019,04,02,03,27,2.50
2019,04,02,03,28,2.50
2019,04,02,03,29,2.50
2019,04,02,03,30,2.50
2019,04,02,03,31,2.40
2019,04,02,03,32,2.40
2019,04,02,03,33,2.40
2019,04,02,03,34,2.40
2019,04,02,03,35,2.40
2019,04,02,03,36,2.40
2019,04,02,03,37,2.40
2019,04,02,03,38,2.40
2019,04,02,03,39,2.40
2019,04,02,03,40,2.30
2019,04,02,03,41,2.30
2019,04,02,03,42,2.30
2019,04,02,03,43,2.30
2019,04,02,03,44,2.30
2019,04,02,03,45,2.30
2019,04,02,03,46,2.30
2019,04,02,03,47,2.30
2019,04,02,03,48,2.30
2019,04,02,03,49,2.30
2019,04,02,03,50,2.30
2019,04,02,03,51,2.20
2019,04,02,03,52,2.20
2019,04,02,03,53,2.20
2019,04,02,03,54,2.20
2019,04,02,03,55,2.20
2019,04,02,03,56,2.20
2019,04,02,03,57,2.20
2019,04,02,03,58,2.20
2019,04,02,03,59,2.20
2019,04,02,04,00,2.20
2019,04,02,04,01,2.10
2019,04,02,04,02,2.10
2019,04,02,04,03,2.10
2019,04,02,04,04,2.10
2019,04,02,04,05,2.10
2019,04,02,04,06,2.10
2019,04,02,04,07,2.10
2019,04,02,04,08,2.10
2019,04,02,04,09,2.10
2019,04,02,04,10,2.10
2019,04,02,04,11,2.10
2019,04,02,04,12,2.10
2019,04,02,04,13,2.10
2019,04,02,04,14,2.10
2019,04,02,04,15,2.10
2019,04,02,04,16,2.10
2019,04,02,04,17,2.10
2019,04,02,04,18,2.10
2019,04,02,04,19,2.10
2019,04,02,04,20,2.10
2019,04,02,04,21,2.10
2019,04,02,04,22,2.10
2019,04,02,04,23,2.10
2019,04,02,04,24,2.10
2019,04,02,04,25,2.10
2019,04,02,04,26,2.10
2019,04,02,04,27,2.10
2019,04,02,04,28,2.10
2019,04,02,04,29,2.10
2019,04,02,04,30,2.10
2019,04,02,04,31,2.10
2019,04,02,04,32,2.10
2019,04,02,04,33,2.10
2019,04,02,04,34,2.10
2019,04,02,04,35,2.10
2019,04,02,04,36,2.10
2019,04,02,04,37,2.10
2019,04,02,04,38,2.10
2019,04,02,04,39,2.10
2019,04,02,04,40,2.10
2019,04,02,04,41,2.20
2019,04,02,04,42,2.20
2019,04,02,04,43,2.10
2019,04,02,04,44,2.10
2019,04,02,04,45,2.10
2019,04,02,04,46,2.10
2019,04,02,04,47,2.10
2019,04,02,04,48,2.10
2019,04,02,04,49,2.10
2019,04,02,04,50,2.10
2019,04,02,04,51,2.10
2019,04,02,04,52,2.10
2019,04,02,04,53,2.10
2019,04,02,04,54,2.10
2019,04,02,04,55,2.10
2019,04,02,04,56,2.10
2019,04,02,04,57,2.10
2019,04,02,04,58,2.10
2019,04,02,04,59,2.10
2019,04,02,05,00,2.10
2019,04,02,05,01,2.10
2019,04,02,05,02,2.10
2019,04,02,05,03,2.10
2019,04,02,05,04,2.10
2019,04,02,05,05,2.10
2019,04,02,05,06,2.10
2019,04,02,05,07,2.10
2019,04,02,05,08,2.10
2019,04,02,05,09,2.10
2019,04,02,05,10,2.00
2019,04,02,05,11,2.00
2019,04,02,05,12,2.00
2019,04,02,05,13,2.00
2019,04,02,05,14,2.00
2019,04,02,05,15,2.00
2019,04,02,05,16,2.00
2019,04,02,05,17,2.00
2019,04,02,05,18,2.00
2019,04,02,05,19,2.00
2019,04,02,05,20,2.00
2019,04,02,05,21,2.00
2019,04,02,05,22,2.00
2019,04,02,05,23,2.00
2019,04,02,05,24,2.00
2019,04,02,05,25,2.00
2019,04,02,05,26,2.00
2019,04,02,05,27,2.00
2019,04,02,05,28,2.00
2019,04,02,05,29,1.90
2019,04,02,05,30,1.90
2019,04,02,05,31,1.90
2019,04,02,05,32,1.90
2019,04,02,05,33,1.90
2019,04,02,05,34,1.90
2019,04,02,05,35,1.90
2019,04,02,05,36,1.90
2019,04,02,05,37,1.90
2019,04,02,05,38,1.90
2019,04,02,05,39,1.90
2019,04,02,05,40,1.90
2019,04,02,05,41,1.80
2019,04,02,05,42,1.80
2019,04,02,05,43,1.80
2019,04,02,05,44,1.80
2019,04,02,05,45,1.80
2019,04,02,05,46,1.80
2019,04,02,05,47,1.80
2019,04,02,05,48,1.80
2019,04,02,05,49,1.80
2019,04,02,05,50,1.80
2019,04,02,05,51,1.80
2019,04,02,05,52,1.80
2019,04,02,05,53,1.70
2019,04,02,05,54,1.70
2019,04,02,05,55,1.70
2019,04,02,05,56,1.70
2019,04,02,05,57,1.70
2019,04,02,05,58,1.70
2019,04,02,05,59,1.60
2019,04,02,06,00,1.60
2019,04,02,06,01,1.60
2019,04,02,06,02,1.60
2019,04,02,06,03,1.60
2019,04,02,06,04,1.60
2019,04,02,06,05,1.60
2019,04,02,06,06,1.50
2019,04,02,06,07,1.50
2019,04,02,06,08,1.50
2019,04,02,06,09,1.50
2019,04,02,06,10,1.40
2019,04,02,06,11,1.40
2019,04,02,06,12,1.40
2019,04,02,06,13,1.40
2019,04,02,06,14,1.40
2019,04,02,06,15,1.40
2019,04,02,06,16,1.30
2019,04,02,06,17,1.30
2019,04,02,06,18,1.30
2019,04,02,06,19,1.30
2019,04,02,06,20,1.30
2019,04,02,06,21,1.30
2019,04,02,06,22,1.30
2019,04,02,06,23,1.30
2019,04,02,06,24,1.30
2019,04,02,06,25,1.30
2019,04,02,06,26,1.30
2019,04,02,06,27,1.30
2019,04,02,06,28,1.30
2019,04,02,06,29,1.30
2019,04,02,06,30,1.30
2019,04,02,06,31,1.30
2019,04,02,06,32,1.30
2019,04,02,06,33,1.30
2019,04,02,06,34,1.30
2019,04,02,06,35,1.30
2019,04,02,06,36,1.30
2019,04,02,06,37,1.30
2019,04,02,06,38,1.30
2019,04,02,06,39,1.30
2019,04,02,06,40,1.30
2019,04,02,06,41,1.30
2019,04,02,06,42,1.30
2019,04,02,06,43,1.30
2019,04,02,06,44,1.20
2019,04,02,06,45,1.20
2019,04,02,06,46,1.20
2019,04,02,06,47,1.20
2019,04,02,06,48,1.20
2019,04,02,06,49,1.20
2019,04,02,06,50,1.20
2019,04,02,06,51,1.20
2019,04,02,06,52,1.10
2019,04,02,06,53,1.10
2019,04,02,06,54,1.10
2019,04,02,06,55,1.10
2019,04,02,06,56,1.10
2019,04,02,06,57,1.10
2019,04,02,06,58,1.10
2019,04,02,06,59,1.10
2019,04,02,07,00,1.10
2019,04,02,07,01,1.10
2019,04,02,07,02,1.10
2019,04,02,07,03,1.10
2019,04,02,07,04,1.10
2019,04,02,07,05,1.10
2019,04,02,07,06,1.10
2019,04,02,07,07,1.10
2019,04,02,07,08,1.10
2019,04,02,07,09,1.10
2019,04,02,07,10,1.10
2019,04,02,07,11,1.10
2019,04,02,07,12,1.10
2019,04,02,07,13,1.10
2019,04,02,07,14,1.10
2019,04,02,07,15,1.10
2019,04,02,07,16,1.10
2019,04,02,07,17,1.10
2019,04,02,07,18,1.10
2019,04,02,07,19,1.10
2019,04,02,07,20,1.10
2019,04,02,07,21,1.10
2019,04,02,07,22,1.10
2019,04,02,07,23,1.10
2019,04,02,07,24,1.10
2019,04,02,07,25,1.10
2019,04,02,07,26,1.10
2019,04,02,07,27,1.10
2019,04,02,07,28,1.10
2019,04,02,07,29,1.10
2019,04,02,07,30,1.10
2019,04,02,07,31,1.00
2019,04,02,07,32,1.10
2019,04,02,07,33,1.10
2019,04,02,07,34,1.00
2019,04,02,07,35,1.10
2019,04,02,07,36,1.10
2019,04,02,07,37,1.10
2019,04,02,07,38,1.10
2019,04,02,07,39,1.10
2019,04,02,07,40,1.10
2019,04,02,07,41,1.10
2019,04,02,07,42,1.10
2019,04,02,07,43,1.10
2019,04,02,07,44,1.10
2019,04,02,07,45,1.10
2019,04,02,07,46,1.10
2019,04,02,07,47,1.10
2019,04,02,07,48,1.10
2019,04,02,07,49,1.20
2019,04,02,07,50,1.20
2019,04,02,07,51,1.20
2019,04,02,07,52,1.20
2019,04,02,07,53,1.20
2019,04,02,07,54,1.20
2019,04,02,07,55,1.30
2019,04,02,07,56,1.30
2019,04,02,07,57,1.30
2019,04,02,07,58,1.30
2019,04,02,07,59,1.30
2019,04,02,08,00,1.30
2019,04,02,08,01,1.30
2019,04,02,08,02,1.30
2019,04,02,08,03,1.30
2019,04,02,08,04,1.30
2019,04,02,08,05,1.40
2019,04,02,08,06,1.50
2019,04,02,08,07,1.50
2019,04,02,08,08,1.60
2019,04,02,08,09,1.60
2019,04,02,08,10,1.70
2019,04,02,08,11,1.70
2019,04,02,08,12,1.70
2019,04,02,08,13,1.80
2019,04,02,08,14,1.80
2019,04,02,08,15,1.90
2019,04,02,08,16,1.90
2019,04,02,08,17,2.00
2019,04,02,08,18,2.00
2019,04,02,08,19,2.10
2019,04,02,08,20,2.10
2019,04,02,08,21,2.20
2019,04,02,08,22,2.20
2019,04,02,08,23,2.30
2019,04,02,08,24,2.40
2019,04,02,08,25,2.40
2019,04,02,08,26,2.40
2019,04,02,08,27,2.40
2019,04,02,08,28,2.40
2019,04,02,08,29,2.70
2019,04,02,08,30,2.80
2019,04,02,08,31,2.90
2019,04,02,08,32,3.00
2019,04,02,08,33,3.10
2019,04,02,08,34,3.10
2019,04,02,08,35,3.20
2019,04,02,08,36,3.30
2019,04,02,08,37,3.40
2019,04,02,08,38,3.60
2019,04,02,08,39,3.70
2019,04,02,08,40,3.80
2019,04,02,08,41,3.90
2019,04,02,08,42,4.10
2019,04,02,08,43,4.20
2019,04,02,08,44,4.30
2019,04,02,08,45,4.40
2019,04,02,08,46,4.50
2019,04,02,08,47,4.60
2019,04,02,08,48,4.70
2019,04,02,08,49,4.80
2019,04,02,08,50,4.90
2019,04,02,08,51,4.90
2019,04,02,08,52,5.00
2019,04,02,08,53,5.10
2019,04,02,08,54,5.20
2019,04,02,08,55,5.20
2019,04,02,08,56,5.30
2019,04,02,08,57,5.40
2019,04,02,08,58,5.50
2019,04,02,08,59,5.60
2019,04,02,09,00,5.70
2019,04,02,09,01,5.80
2019,04,02,09,02,5.90
2019,04,02,09,03,6.10
2019,04,02,09,04,6.20
2019,04,02,09,05,6.20
2019,04,02,09,06,6.20
2019,04,02,09,07,6.20
2019,04,02,09,08,6.40
2019,04,02,09,09,6.90
2019,04,02,09,10,7.00
2019,04,02,09,11,7.20
2019,04,02,09,12,7.30
2019,04,02,09,13,7.50
2019,04,02,09,14,7.60
2019,04,02,09,15,7.80
2019,04,02,09,16,7.90
2019,04,02,09,17,8.00
2019,04,02,09,18,8.10
2019,04,02,09,19,8.20
2019,04,02,09,20,8.30
2019,04,02,09,21,8.40
2019,04,02,09,22,8.50
2019,04,02,09,23,8.60
2019,04,02,09,24,8.70
2019,04,02,09,25,8.80
2019,04,02,09,26,8.90
2019,04,02,09,27,9.00
2019,04,02,09,28,9.10
2019,04,02,09,29,9.20
2019,04,02,09,30,9.40
2019,04,02,09,31,9.50
2019,04,02,09,32,9.60
2019,04,02,09,33,9.70
2019,04,02,09,34,9.70
2019,04,02,09,35,9.80
2019,04,02,09,36,9.90
2019,04,02,09,37,10.00
2019,04,02,09,38,10.00
2019,04,02,09,39,10.10
2019,04,02,09,40,10.20
2019,04,02,09,41,10.30
2019,04,02,09,42,10.30
2019,04,02,09,43,10.50
2019,04,02,09,44,10.60
2019,04,02,09,45,10.70
2019,04,02,09,46,10.70
2019,04,02,09,47,10.80
2019,04,02,09,48,10.90
2019,04,02,09,49,11.00
2019,04,02,09,50,11.00
2019,04,02,09,51,11.30
2019,04,02,09,52,11.40
2019,04,02,09,53,11.60
2019,04,02,09,54,11.70
2019,04,02,09,55,11.80
2019,04,02,09,56,12.00
2019,04,02,09,57,12.10
2019,04,02,09,58,12.20
2019,04,02,09,59,12.40
2019,04,02,10,00,12.50
2019,04,02,10,01,12.60
2019,04,02,10,02,12.70
2019,04,02,10,03,12.70
2019,04,02,10,04,12.80
2019,04,02,10,05,12.90
2019,04,02,10,06,13.00
2019,04,02,10,07,13.10
2019,04,02,10,08,13.10
2019,04,02,10,09,13.20
2019,04,02,10,10,13.20
2019,04,02,10,11,13.20
2019,04,02,10,12,13.30
2019,04,02,10,13,13.30
2019,04,02,10,14,13.40
2019,04,02,10,15,13.40
2019,04,02,10,16,13.40
2019,04,02,10,17,13.40
2019,04,02,10,18,13.40
2019,04,02,10,19,13.30
2019,04,02,10,20,13.40
2019,04,02,10,21,13.40
2019,04,02,10,22,13.50
2019,04,02,10,23,13.60
2019,04,02,10,24,13.70
2019,04,02,10,25,13.80
2019,04,02,10,26,13.80
2019,04,02,10,27,14.00
2019,04,02,10,28,14.20
2019,04,02,10,29,14.30
2019,04,02,10,30,14.40
2019,04,02,10,31,14.60
2019,04,02,10,32,14.80
2019,04,02,10,33,14.90
2019,04,02,10,34,15.00
2019,04,02,10,35,15.10
2019,04,02,10,36,15.20
2019,04,02,10,37,15.20
2019,04,02,10,38,15.20
2019,04,02,10,39,15.20
2019,04,02,10,40,15.70
2019,04,02,10,41,15.80
2019,04,02,10,42,15.90
2019,04,02,10,43,16.10
2019,04,02,10,44,16.20
2019,04,02,10,45,16.30
2019,04,02,10,46,16.40
2019,04,02,10,47,16.50
2019,04,02,10,48,16.50
2019,04,02,10,49,16.50
2019,04,02,10,50,16.40
2019,04,02,10,51,16.50
2019,04,02,10,52,16.50
2019,04,02,10,53,16.60
2019,04,02,10,54,16.60
2019,04,02,10,55,16.60
2019,04,02,10,56,16.50
2019,04,02,10,57,16.50
2019,04,02,10,58,16.40
2019,04,02,10,59,16.30
2019,04,02,11,00,16.30
2019,04,02,11,01,16.30
2019,04,02,11,02,16.40
2019,04,02,11,03,16.40
2019,04,02,11,04,16.40
2019,04,02,11,05,16.50
2019,04,02,11,06,16.50
2019,04,02,11,07,16.60
2019,04,02,11,08,16.70
2019,04,02,11,09,16.70
2019,04,02,11,10,16.80
2019,04,02,11,11,16.80
2019,04,02,11,12,16.80
2019,04,02,11,13,16.80
2019,04,02,11,14,16.90
2019,04,02,11,15,16.90
2019,04,02,11,16,17.00
2019,04,02,11,17,17.10
2019,04,02,11,18,17.10
2019,04,02,11,19,17.20
2019,04,02,11,20,17.20
2019,04,02,11,21,17.20
2019,04,02,11,22,17.30
2019,04,02,11,23,17.30
2019,04,02,11,24,17.30
2019,04,02,11,25,17.30
2019,04,02,11,26,17.30
2019,04,02,11,27,17.30
2019,04,02,11,28,17.30
2019,04,02,11,29,17.30
2019,04,02,11,30,17.30
2019,04,02,11,31,17.20
2019,04,02,11,32,17.20
2019,04,02,11,33,17.20
2019,04,02,11,34,17.20
2019,04,02,11,35,17.20
2019,04,02,11,36,17.10
2019,04,02,11,37,17.00
2019,04,02,11,38,16.90
2019,04,02,11,39,16.90
2019,04,02,11,40,16.90
2019,04,02,11,41,16.90
2019,04,02,11,42,16.90
2019,04,02,11,43,16.90
2019,04,02,11,44,16.90
2019,04,02,11,45,16.80
2019,04,02,11,46,16.80
2019,04,02,11,47,16.90
2019,04,02,11,48,16.90
2019,04,02,11,49,16.90
2019,04,02,11,50,16.90
2019,04,02,11,51,16.80
2019,04,02,11,52,16.80
2019,04,02,11,53,16.80
2019,04,02,11,54,16.80
2019,04,02,11,55,16.80
2019,04,02,11,56,16.70
2019,04,02,11,57,16.70
2019,04,02,11,58,16.70
2019,04,02,11,59,16.70
2019,04,02,12,00,16.70
2019,04,02,12,01,16.70
2019,04,02,12,02,16.70
2019,04,02,12,03,16.70
2019,04,02,12,04,16.70
2019,04,02,12,05,16.70
2019,04,02,12,06,16.70
2019,04,02,12,07,16.70
2019,04,02,12,08,16.70
2019,04,02,12,09,16.70
2019,04,02,12,10,16.60
2019,04,02,12,11,16.60
2019,04,02,12,12,16.50
2019,04,02,12,13,16.40
2019,04,02,12,14,16.30
2019,04,02,12,15,16.30
2019,04,02,12,16,16.30
2019,04,02,12,17,16.30
2019,04,02,12,18,16.40
2019,04,02,12,19,16.40
2019,04,02,12,20,16.40
2019,04,02,12,21,16.40
2019,04,02,12,22,16.40
2019,04,02,12,23,16.40
2019,04,02,12,24,16.50
2019,04,02,12,25,16.50
2019,04,02,12,26,16.60
2019,04,02,12,27,16.50
2019,04,02,12,28,16.60
2019,04,02,12,29,16.70
2019,04,02,12,30,16.90
2019,04,02,12,31,17.00
2019,04,02,12,32,17.20
2019,04,02,12,33,17.20
2019,04,02,12,34,17.30
2019,04,02,12,35,17.30
2019,04,02,12,36,17.30
2019,04,02,12,37,17.20
2019,04,02,12,38,17.00
2019,04,02,12,39,17.00
2019,04,02,12,40,16.90
2019,04,02,12,41,16.90
2019,04,02,12,42,16.90
2019,04,02,12,43,16.90
2019,04,02,12,44,16.90
2019,04,02,12,45,17.00
2019,04,02,12,46,17.00
2019,04,02,12,47,17.00
2019,04,02,12,48,17.10
2019,04,02,12,49,17.20
2019,04,02,12,50,17.20
2019,04,02,12,51,17.30
2019,04,02,12,52,17.30
2019,04,02,12,53,17.40
2019,04,02,12,54,17.40
2019,04,02,12,55,17.50
2019,04,02,12,56,17.50
2019,04,02,12,57,17.60
2019,04,02,12,58,17.60
2019,04,02,12,59,17.60
2019,04,02,13,00,17.50
2019,04,02,13,01,17.50
2019,04,02,13,02,17.50
2019,04,02,13,03,17.60
2019,04,02,13,04,17.50
2019,04,02,13,05,17.60
2019,04,02,13,06,17.60
2019,04,02,13,07,17.70
2019,04,02,13,08,17.70
2019,04,02,13,09,17.80
2019,04,02,13,10,17.80
2019,04,02,13,11,17.80
2019,04,02,13,12,17.80
2019,04,02,13,13,17.80
2019,04,02,13,14,17.80
2019,04,02,13,15,17.80
2019,04,02,13,16,17.80
2019,04,02,13,17,17.90
2019,04,02,13,18,17.90
2019,04,02,13,19,18.00
2019,04,02,13,20,18.10
2019,04,02,13,21,18.20
2019,04,02,13,22,18.30
2019,04,02,13,23,18.40
2019,04,02,13,24,18.60
2019,04,02,13,25,18.70
2019,04,02,13,26,18.70
2019,04,02,13,27,18.70
2019,04,02,13,28,18.70
2019,04,02,13,29,18.80
2019,04,02,13,30,18.90
2019,04,02,13,31,19.00
2019,04,02,13,32,19.10
2019,04,02,13,33,19.20
2019,04,02,13,34,19.30
2019,04,02,13,35,19.40
2019,04,02,13,36,19.40
2019,04,02,13,37,19.40
2019,04,02,13,38,19.30
2019,04,02,13,39,19.30
2019,04,02,13,40,19.30
2019,04,02,13,41,19.10
2019,04,02,13,42,19.10
2019,04,02,13,43,18.90
2019,04,02,13,44,18.90
2019,04,02,13,45,18.80
2019,04,02,13,46,18.70
2019,04,02,13,47,18.70
2019,04,02,13,48,18.70
2019,04,02,13,49,18.60
2019,04,02,13,50,18.60
2019,04,02,13,51,18.60
2019,04,02,13,52,18.60
2019,04,02,13,53,18.60
2019,04,02,13,54,18.60
2019,04,02,13,55,18.60
2019,04,02,13,56,18.50
2019,04,02,13,57,18.60
2019,04,02,13,58,18.60
2019,04,02,13,59,18.60
2019,04,02,14,00,18.70
2019,04,02,14,01,18.70
2019,04,02,14,02,18.70
2019,04,02,14,03,18.80
2019,04,02,14,04,18.80
2019,04,02,14,05,18.90
2019,04,02,14,06,19.00
2019,04,02,14,07,19.00
2019,04,02,14,08,19.10
2019,04,02,14,09,19.10
2019,04,02,14,10,19.10
2019,04,02,14,11,19.10
2019,04,02,14,12,19.10
2019,04,02,14,13,19.10
2019,04,02,14,14,19.00
2019,04,02,14,15,18.90
2019,04,02,14,16,18.80
2019,04,02,14,17,18.80
2019,04,02,14,18,18.70
2019,04,02,14,19,18.60
2019,04,02,14,20,18.50
2019,04,02,14,21,18.50
2019,04,02,14,22,18.40
2019,04,02,14,23,18.30
2019,04,02,14,24,18.30
2019,04,02,14,25,18.30
2019,04,02,14,26,18.30
2019,04,02,14,27,18.30
2019,04,02,14,28,18.30
2019,04,02,14,29,18.30
2019,04,02,14,30,18.30
2019,04,02,14,31,18.30
2019,04,02,14,32,18.30
2019,04,02,14,33,18.30
2019,04,02,14,34,18.20
2019,04,02,14,35,18.20
2019,04,02,14,36,18.20
2019,04,02,14,37,18.20
2019,04,02,14,38,18.20
2019,04,02,14,39,18.20
2019,04,02,14,40,18.20
2019,04,02,14,41,18.20
2019,04,02,14,42,18.40
2019,04,02,14,43,18.40
2019,04,02,14,44,18.40
2019,04,02,14,45,18.40
2019,04,02,14,46,18.50
2019,04,02,14,47,18.50
2019,04,02,14,48,18.60
2019,04,02,14,49,18.60
2019,04,02,14,50,18.60
2019,04,02,14,51,18.70
2019,04,02,14,52,18.70
2019,04,02,14,53,18.60
2019,04,02,14,54,18.60
2019,04,02,14,55,18.50
2019,04,02,14,56,18.50
2019,04,02,14,57,18.40
2019,04,02,14,58,18.40
2019,04,02,14,59,18.40
2019,04,02,15,00,18.40
2019,04,02,15,01,18.40
2019,04,02,15,02,18.30
2019,04,02,15,03,18.30
2019,04,02,15,04,18.40
2019,04,02,15,05,18.40
2019,04,02,15,06,18.40
2019,04,02,15,07,18.40
2019,04,02,15,08,18.30
2019,04,02,15,09,18.30
2019,04,02,15,10,18.30
2019,04,02,15,11,18.30
2019,04,02,15,12,18.30
2019,04,02,15,13,18.30
2019,04,02,15,14,18.40
2019,04,02,15,15,18.40
2019,04,02,15,16,18.40
2019,04,02,15,17,18.50
2019,04,02,15,18,18.50
2019,04,02,15,19,18.60
2019,04,02,15,20,18.60
2019,04,02,15,21,18.60
2019,04,02,15,22,18.60
2019,04,02,15,23,18.60
2019,04,02,15,24,18.60
2019,04,02,15,25,18.60
2019,04,02,15,26,18.60
2019,04,02,15,27,18.60
2019,04,02,15,28,18.60
2019,04,02,15,29,18.60
2019,04,02,15,30,18.60
2019,04,02,15,31,18.60
2019,04,02,15,32,18.60
2019,04,02,15,33,18.60
2019,04,02,15,34,18.60
2019,04,02,15,35,18.60
2019,04,02,15,36,18.60
2019,04,02,15,37,18.60
2019,04,02,15,38,18.50
2019,04,02,15,39,18.50
2019,04,02,15,40,18.50
2019,04,02,15,41,18.50
2019,04,02,15,42,18.50
2019,04,02,15,43,18.50
2019,04,02,15,44,18.50
2019,04,02,15,45,18.60
2019,04,02,15,46,18.60
2019,04,02,15,47,18.60
2019,04,02,15,48,18.60
2019,04,02,15,49,18.60
2019,04,02,15,50,18.60
2019,04,02,15,51,18.70
2019,04,02,15,52,18.70
2019,04,02,15,53,18.70
2019,04,02,15,54,18.70
2019,04,02,15,55,18.70
2019,04,02,15,56,18.70
2019,04,02,15,57,18.70
2019,04,02,15,58,18.60
2019,04,02,15,59,18.60
2019,04,02,16,00,18.60
2019,04,02,16,01,18.50
2019,04,02,16,02,18.40
2019,04,02,16,03,18.40
2019,04,02,16,04,18.40
2019,04,02,16,05,18.40
2019,04,02,16,06,18.30
2019,04,02,16,07,18.30
2019,04,02,16,08,18.30
2019,04,02,16,09,18.30
2019,04,02,16,10,18.30
2019,04,02,16,11,18.30
2019,04,02,16,12,18.30
2019,04,02,16,13,18.30
2019,04,02,16,14,18.30
2019,04,02,16,15,18.30
2019,04,02,16,16,18.30
2019,04,02,16,17,18.30
2019,04,02,16,18,18.30
2019,04,02,16,19,18.30
2019,04,02,16,20,18.30
2019,04,02,16,21,18.30
2019,04,02,16,22,18.30
2019,04,02,16,23,18.30
2019,04,02,16,24,18.30
2019,04,02,16,25,18.30
2019,04,02,16,26,18.30
2019,04,02,16,27,18.30
2019,04,02,16,28,18.20
2019,04,02,16,29,18.20
2019,04,02,16,30,18.20
2019,04,02,16,31,18.20
2019,04,02,16,32,18.20
2019,04,02,16,33,18.20
2019,04,02,16,34,18.20
2019,04,02,16,35,18.20
2019,04,02,16,36,18.20
2019,04,02,16,37,18.20
2019,04,02,16,38,18.20
2019,04,02,16,39,18.20
2019,04,02,16,40,18.20
2019,04,02,16,41,18.20
2019,04,02,16,42,18.10
2019,04,02,16,43,18.10
2019,04,02,16,44,18.10
2019,04,02,16,45,18.10
2019,04,02,16,46,18.10
2019,04,02,16,47,18.10
2019,04,02,16,48,18.10
2019,04,02,16,49,18.10
2019,04,02,16,50,18.10
2019,04,02,16,51,18.10
2019,04,02,16,52,18.10
2019,04,02,16,53,18.10
2019,04,02,16,54,18.10
2019,04,02,16,55,18.10
2019,04,02,16,56,18.10
2019,04,02,16,57,18.10
2019,04,02,16,58,18.10
2019,04,02,16,59,18.10
2019,04,02,17,00,18.00
2019,04,02,17,01,18.00
2019,04,02,17,02,18.00
2019,04,02,17,03,18.00
2019,04,02,17,04,17.90
2019,04,02,17,05,17.90
2019,04,02,17,06,17.90
2019,04,02,17,07,17.90
2019,04,02,17,08,17.90
2019,04,02,17,09,17.90
2019,04,02,17,10,17.90
2019,04,02,17,11,17.90
2019,04,02,17,12,17.90
2019,04,02,17,13,17.90
2019,04,02,17,14,17.90
2019,04,02,17,15,17.90
2019,04,02,17,16,17.90
2019,04,02,17,17,17.90
2019,04,02,17,18,17.90
2019,04,02,17,19,17.90
2019,04,02,17,20,17.90
2019,04,02,17,21,17.90
2019,04,02,17,22,17.80
2019,04,02,17,23,17.80
2019,04,02,17,24,17.80
2019,04,02,17,25,17.70
2019,04,02,17,26,17.70
2019,04,02,17,27,17.70
2019,04,02,17,28,17.70
2019,04,02,17,29,17.60
2019,04,02,17,30,17.60
2019,04,02,17,31,17.60
2019,04,02,17,32,17.60
2019,04,02,17,33,17.60
2019,04,02,17,34,17.60
2019,04,02,17,35,17.60
2019,04,02,17,36,17.60
2019,04,02,17,37,17.60
2019,04,02,17,38,17.60
2019,04,02,17,39,17.60
2019,04,02,17,40,17.60
2019,04,02,17,41,17.60
2019,04,02,17,42,17.60
2019,04,02,17,43,17.60
2019,04,02,17,44,17.60